Regional Weather Roundup
Issued by NWS

Home | Current Version | Previous Version | Text Only | Print | Product List | Glossary Off
Versions: 1 2 3 4 5 6 7 8 9 10 11 12 13 14 15 16 17 18 19 20 21 22 23 24 25 26 27 28 29 30 31 32 33 34 35 36 37 38 39 40 41 42 43 44 45 46 47 48 49 50

000
ASUS43 KOAX 050702
RWRNE

WEATHER ROUNDUP FOR NEBRASKA
NATIONAL WEATHER SERVICE OMAHA NE
200 AM CDT TUE MAY 05 2015

NOTES: SATELLITE DATA IS BEING USED TO AUGMENT CLOUD COVER ABOVE
       12000 FEET.
       "FAIR" INDICATES FEW OR NO CLOUDS BELOW 12,000 FEET WITH NO
       SIGNIFICANT WEATHER AND/OR OBSTRUCTIONS TO VISIBILITY.

  * THESE STATIONS DO NOT REPORT WEATHER SUCH AS RAIN...SNOW OR FOG.

NEZ001>004-019>022-054>056-050800-
NEBRASKA PANHANDLE

CITY           SKY/WX    TMP DP  RH WIND       PRES   REMARKS
SCOTTSBLUFF    CLOUDY    49  42  77 SE8       30.09F
ALLIANCE       CLOUDY    49  43  80 S6        30.08F
CHADRON        MOCLDY    42  38  85 E3        30.07F
KIMBALL        CLOUDY    44  43  97 SE6       30.07F
SIDNEY         CLOUDY    45  43  93 SE7       30.09F FOG
$$

NEZ057>060-069>072-079>082-050800-
SOUTHWEST NEBRASKA

CITY           SKY/WX    TMP DP  RH WIND       PRES   REMARKS
NORTH PLATTE   CLOUDY    51  50  96 SE3       30.09S
IMPERIAL       CLOUDY    49  47  93 NE3       30.07F FOG
MCCOOK         CLOUDY    53  51  93 NE6       30.07R FOG
$$

NEZ005>010-023>029-035>040-094-050800-
NORTH CENTRAL NEBRASKA

CITY           SKY/WX    TMP DP  RH WIND       PRES   REMARKS
VALENTINE      PTCLDY    46  35  65 E6        30.09S
AINSWORTH      CLOUDY    51  43  73 SE3       30.09F
BROKEN BOW     FOG       53  52  96 E5        30.08F VSB 3/4
ORD            CLOUDY    54  52  93 E6        30.08S FOG
$$

NEZ041-046>049-061>064-073>077-083>087-050800-
SOUTH CENTRAL NEBRASKA

CITY           SKY/WX    TMP DP  RH WIND       PRES   REMARKS
GRAND ISLAND   FOG       55  54  96 E8        30.08F VSB 1/4
AURORA         FOG       56  56 100 NE5       30.07F VSB 1/4
HASTINGS       FOG       56  55  97 E8        30.05F VSB 1/4
KEARNEY *      CLOUDY    54  52  94 NE7       30.07F VSB 1/2
$$

NEZ011>018-030>034-042>045-050800-
NORTHEAST NEBRASKA

CITY           SKY/WX    TMP DP  RH WIND       PRES   REMARKS
NORFOLK        CLOUDY    55  52  89 E6        30.08F
COLUMBUS *     CLOUDY    55  48  76 E6        30.09F
TEKAMAH        LGT RAIN  57  55  93 N8        30.08F FOG
$$

NEZ050>053-065>068-078-088>093-050800-
SOUTHEAST NEBRASKA

CITY           SKY/WX    TMP DP  RH WIND       PRES   REMARKS
LINCOLN        CLOUDY    61  59  93 S8        30.06F
OMAHA EPPLEY   CLOUDY    60  57  89 N5        30.07S
FALLS CITY     LGT RAIN  61  61 100 NW6       30.07F
NEBRASKA CITY  RAIN      61  60  97 S12G24    30.05F
PLATTSMOUTH    CLOUDY    61  58  90 S3        30.06F
$$

NEZ044-045-051>053-067-050800-
OMAHA AREA

CITY           SKY/WX    TMP DP  RH WIND       PRES   REMARKS
OMAHA EPPLEY   CLOUDY    60  57  89 N5        30.07S
OFFUTT AFB     MOCLDY    62  59  90 S6        30.05F
PLATTSMOUTH    CLOUDY    61  58  90 S3        30.06F
$$


USA.gov is the U.S. government's official web portal to all federal, state and local government web resources and services.